Weather History for PAGL - September, 2013

Change the Weather History Date:

Thursday, September 19, 2013

  Actual Average Record
Temperature  
Mean Temperature 32 °F -  
Max Temperature 37 °F - - ()
Min Temperature 28 °F - - ()
Degree Days  
Heating Degree Days 32    
Moisture  
Dew Point 22 °F    
Average Humidity 61    
Maximum Humidity 75    
Minimum Humidity 48    
Precipitation  
Precipitation 0.00 in - - ()
Sea Level Pressure  
Sea Level Pressure 29.75 in    
Wind  
Wind Speed 6 mph (NNW)    
Max Wind Speed 12 mph    
Max Gust Speed 16 mph    
Visibility 10 miles    
Events      
T = Trace of Precipitation, MM = Missing Value Source: NWS Daily Summary

Daily Weather History Graph

Daily Weather History Graph

Search for Another Location

Airport or City:

Trip Planner

Search our weather history database for the weather conditions in past years. The results will help you decide how hot, cold, wet, or windy it might be!

Date:

Astronomy

Sep. 19, 2013 Rise Set
Actual Time 8:27 AM AKDT 9:02 PM AKDT
Civil Twilight 7:38 AM AKDT 9:50 PM AKDT
Nautical Twilight 6:37 AM AKDT 10:51 PM AKDT
Astronomical Twilight 5:25 AM AKDT 12:01 AM AKDT
Moon 8:33 PM AKDT (9/19) 9:14 AM AKDT (9/19)
Length of Visible Light 14h 12m
Length of Day
12h 34m
Full, 100% of the Moon is Illuminated
Sep 19
Full
Sep 26
Last Quarter
Oct 4
New
Oct 11
First Quarter
Oct 18
Full

Hourly Weather History & Observations

Time (AKDT) Temp. Windchill Dew Point Humidity Pressure Visibility Wind Dir Wind Speed Gust Speed Precip Events Conditions
12:16 AM 35.6 °F 29.9 °F 23.0 °F 60% 29.79 in 10.0 mi North 6.9 mph - N/A   Overcast
12:36 AM 35.6 °F - 21.2 °F 56% 29.79 in 10.0 mi Calm Calm - N/A   Overcast
12:56 AM 33.8 °F 28.6 °F 23.0 °F 65% 29.79 in 10.0 mi North 5.8 mph - N/A   Overcast
1:16 AM 33.8 °F 28.6 °F 23.0 °F 65% 29.79 in 10.0 mi North 5.8 mph - N/A   Overcast
1:36 AM 33.8 °F 30.8 °F 23.0 °F 65% 29.79 in 10.0 mi North 3.5 mph - N/A   Overcast
1:56 AM 33.8 °F 29.6 °F 23.0 °F 65% 29.79 in 10.0 mi North 4.6 mph - N/A   Overcast
2:16 AM 33.8 °F 30.8 °F 23.0 °F 65% 29.78 in 10.0 mi NNW 3.5 mph - N/A   Overcast
2:36 AM 33.8 °F 28.6 °F 23.0 °F 65% 29.78 in 10.0 mi NNW 5.8 mph - N/A   Overcast
2:56 AM 33.8 °F 28.6 °F 23.0 °F 65% 29.78 in 10.0 mi North 5.8 mph - N/A   Overcast
3:16 AM 33.8 °F 28.6 °F 21.2 °F 60% 29.78 in 10.0 mi NNW 5.8 mph - N/A   Overcast
3:36 AM 33.8 °F 27.7 °F 21.2 °F 60% 29.78 in 10.0 mi NNW 6.9 mph - N/A   Overcast
3:56 AM 35.6 °F 29.9 °F 23.0 °F 60% 29.78 in 10.0 mi North 6.9 mph - N/A   Overcast
4:16 AM 33.8 °F 27.0 °F 21.2 °F 60% 29.78 in 10.0 mi North 8.1 mph - N/A   Overcast
4:36 AM 35.6 °F 29.2 °F 21.2 °F 56% 29.78 in 10.0 mi NNW 8.1 mph - N/A   Overcast
4:56 AM 33.8 °F 27.7 °F 24.8 °F 70% 29.77 in 10.0 mi NNW 6.9 mph - N/A   Overcast
5:16 AM 33.8 °F 27.7 °F 24.8 °F 70% 29.78 in 10.0 mi NNW 6.9 mph - N/A   Overcast
5:36 AM 33.8 °F 28.6 °F 21.2 °F 60% 29.77 in 10.0 mi North 5.8 mph - N/A   Overcast
5:56 AM 30.2 °F - 23.0 °F 75% 29.77 in 10.0 mi Calm Calm - N/A   Overcast
6:16 AM 30.2 °F 25.4 °F 21.2 °F 69% 29.77 in 10.0 mi NNE 4.6 mph - N/A   Overcast
6:36 AM 32.0 °F 26.4 °F 21.2 °F 64% 29.76 in 10.0 mi NNE 5.8 mph - N/A   Overcast
6:56 AM 32.0 °F 28.7 °F 21.2 °F 64% 29.76 in 10.0 mi NNE 3.5 mph - N/A   Overcast
7:16 AM 30.2 °F 25.4 °F 21.2 °F 69% 29.76 in 10.0 mi NNE 4.6 mph - N/A   Overcast
7:36 AM 30.2 °F - 21.2 °F 69% 29.76 in 10.0 mi Calm Calm - N/A   Overcast
7:56 AM 30.2 °F 25.4 °F 21.2 °F 69% 29.77 in 10.0 mi NNE 4.6 mph - N/A   Overcast
8:16 AM 30.2 °F 26.7 °F 21.2 °F 69% 29.77 in 10.0 mi NNW 3.5 mph - N/A   Overcast
8:36 AM 32.0 °F 26.4 °F 24.8 °F 75% 29.77 in 10.0 mi NE 5.8 mph - N/A   Overcast
8:56 AM 28.4 °F 22.2 °F 21.2 °F 74% 29.76 in 10.0 mi NNE 5.8 mph - N/A   Overcast
9:16 AM 30.2 °F - 21.2 °F 69% 29.76 in 10.0 mi Calm Calm - N/A   Overcast
9:36 AM 30.2 °F 26.7 °F 23.0 °F 75% 29.77 in 10.0 mi North 3.5 mph - N/A   Overcast
9:56 AM 33.8 °F 30.8 °F 23.0 °F 65% 29.77 in 10.0 mi North 3.5 mph - N/A   Overcast
10:16 AM 33.8 °F 30.8 °F 24.8 °F 70% 29.77 in 10.0 mi North 3.5 mph - N/A   Overcast
10:36 AM 33.8 °F 28.6 °F 24.8 °F 70% 29.77 in 10.0 mi NNW 5.8 mph - N/A   Overcast
10:56 AM 35.6 °F 30.7 °F 21.2 °F 56% 29.77 in 10.0 mi NNW 5.8 mph - N/A   Overcast
11:16 AM 35.6 °F 30.7 °F 23.0 °F 60% 29.77 in 10.0 mi North 5.8 mph - N/A   Overcast
11:36 AM 35.6 °F 30.7 °F 23.0 °F 60% 29.77 in 10.0 mi North 5.8 mph - N/A   Mostly Cloudy
11:56 AM 37.4 °F 32.8 °F 21.2 °F 52% 29.77 in 10.0 mi NNW 5.8 mph - N/A   Mostly Cloudy
12:16 PM 35.6 °F 31.7 °F 21.2 °F 56% 29.77 in 10.0 mi NW 4.6 mph - N/A   Mostly Cloudy
12:36 PM 37.4 °F 32.8 °F 21.2 °F 52% 29.77 in 10.0 mi NW 5.8 mph - N/A   Mostly Cloudy
12:56 PM 37.4 °F 32.1 °F 19.4 °F 48% 29.77 in 10.0 mi NW 6.9 mph - N/A   Mostly Cloudy
1:16 PM 37.4 °F 33.8 °F 19.4 °F 48% 29.76 in 10.0 mi WNW 4.6 mph - N/A   Overcast
1:36 PM 37.4 °F 33.8 °F 21.2 °F 52% 29.76 in 10.0 mi NW 4.6 mph - N/A   Overcast
1:56 PM 37.4 °F 32.1 °F 19.4 °F 48% 29.76 in 10.0 mi NW 6.9 mph - N/A   Overcast
2:16 PM 37.4 °F 34.9 °F 21.2 °F 52% 29.76 in 10.0 mi WNW 3.5 mph - N/A   Overcast
2:36 PM 37.4 °F 33.8 °F 21.2 °F 52% 29.76 in 10.0 mi West 4.6 mph - N/A   Overcast
2:56 PM 37.4 °F 33.8 °F 21.2 °F 52% 29.76 in 10.0 mi WNW 4.6 mph - N/A   Overcast
3:16 PM 37.4 °F 32.8 °F 21.2 °F 52% 29.76 in 10.0 mi West 5.8 mph - N/A   Overcast
3:36 PM 37.4 °F 32.8 °F 21.2 °F 52% 29.75 in 10.0 mi WNW 5.8 mph - N/A   Overcast
3:56 PM 37.4 °F 30.3 °F 24.8 °F 60% 29.75 in 10.0 mi NW 10.4 mph - N/A   Overcast
4:16 PM 37.4 °F 30.8 °F 23.0 °F 56% 29.75 in 10.0 mi WNW 9.2 mph - N/A   Overcast
4:36 PM 37.4 °F 31.4 °F 23.0 °F 56% 29.75 in 10.0 mi NW 8.1 mph - N/A   Overcast
4:56 PM 37.4 °F 31.4 °F 24.8 °F 60% 29.75 in 10.0 mi WNW 8.1 mph - N/A   Overcast
5:16 PM 37.4 °F 31.4 °F 23.0 °F 56% 29.75 in 10.0 mi NW 8.1 mph - N/A   Overcast
5:36 PM 35.6 °F 28.6 °F 24.8 °F 65% 29.74 in 10.0 mi NW 9.2 mph - N/A   Overcast
5:56 PM 35.6 °F 28.6 °F 24.8 °F 65% 29.74 in 10.0 mi NW 9.2 mph 16.1 mph N/A   Overcast
6:16 PM 35.6 °F 27.5 °F 21.2 °F 56% 29.73 in 10.0 mi NNW 11.5 mph - N/A   Overcast
6:36 PM 35.6 °F 28.0 °F 23.0 °F 60% 29.73 in 10.0 mi NW 10.4 mph - N/A   Overcast
6:56 PM 35.6 °F 27.5 °F 23.0 °F 60% 29.73 in 10.0 mi NW 11.5 mph - N/A   Overcast
7:16 PM 35.6 °F 29.2 °F 23.0 °F 60% 29.73 in 10.0 mi NW 8.1 mph - N/A   Overcast
7:36 PM 35.6 °F 29.9 °F 21.2 °F 56% 29.73 in 10.0 mi NNW 6.9 mph - N/A   Overcast
7:56 PM 35.6 °F 29.2 °F 21.2 °F 56% 29.72 in 10.0 mi NNW 8.1 mph - N/A   Overcast
8:16 PM 35.6 °F 28.6 °F 21.2 °F 56% 29.72 in 10.0 mi NNW 9.2 mph - N/A   Overcast
8:36 PM 35.6 °F 29.2 °F 21.2 °F 56% 29.72 in 10.0 mi North 8.1 mph - N/A   Overcast
8:56 PM 33.8 °F 26.4 °F 23.0 °F 65% 29.71 in 10.0 mi North 9.2 mph - N/A   Overcast
9:16 PM 33.8 °F 27.7 °F 21.2 °F 60% 29.71 in 10.0 mi North 6.9 mph - N/A   Overcast
9:36 PM 33.8 °F 27.7 °F 21.2 °F 60% 29.71 in 10.0 mi North 6.9 mph - N/A   Overcast
9:56 PM 33.8 °F 28.6 °F 21.2 °F 60% 29.71 in 10.0 mi North 5.8 mph - N/A   Overcast
10:16 PM 33.8 °F 28.6 °F 23.0 °F 65% 29.70 in 10.0 mi North 5.8 mph - N/A   Overcast
10:36 PM 33.8 °F 27.7 °F 23.0 °F 65% 29.70 in 10.0 mi North 6.9 mph - N/A   Overcast
10:56 PM 33.8 °F 27.7 °F 21.2 °F 60% 29.70 in 10.0 mi North 6.9 mph - N/A   Overcast
11:16 PM 33.8 °F 28.6 °F 21.2 °F 60% 29.69 in 10.0 mi NNE 5.8 mph - N/A   Overcast
11:36 PM 32.0 °F 26.4 °F 23.0 °F 69% 29.69 in 10.0 mi North 5.8 mph - N/A   Overcast
11:56 PM 32.0 °F 26.4 °F 21.2 °F 64% 29.68 in 10.0 mi NNE 5.8 mph - N/A   Overcast